Flag for China Weather past 2 weeks in Langfang, Hebei, China

Now
66 °F

Light rain. Fog.


Feels Like: 66 °F
Forecast: 60 / 69 °F
Wind: 3 mph from Northeast

Location: Beijing Airport

Current Time: Sep 23, 2014 at 1:19:27 AM

Latest Report: Sep 23, 2014 at 1:00 AM


Visibility: 1 mi

Pressure: 30.07 "Hg

Humidity: 94%

Dew point: 64 °F

Location of LangfangLocation

Historic Weather in Langfang — Graph

°F

Langfang temperature yesterday

Maximum temperature yesterday: 72 °F (at 1:30 PM)
Minimum temperature yesterday: 66 °F (at 8:00 PM)
Average temperature yesterday: 68 °F

Past Weeks' High & Low Weather Summary

 TemperatureHumidityPressure
High84 °F (Sep 8, 12:00 PM)100% (Sep 12, 5:00 AM)30.18 "Hg (Sep 12, 5:00 AM)
Low52 °F (Sep 15, 5:30 AM)14% (Sep 15, 2:30 PM)29.77 "Hg (Sep 8, 3:00 PM)
Average69 °F67%29.98 "Hg
* Reported Midnight between Sep 7 and Sep 8 — Midnight between Sep 22 and Sep 23, Langfang, Weather by CustomWeather, © 2014

Note: Actual official high and low records may vary slightly from our data, if they occured in-between our weather recording intervals... More about our weather records

Advertising

Langfang weather history for previous 24 hours

 ConditionsComfort  
Time TempWeatherWind HumidityBarometerVisibility
12:00 AM
Sep 23
66 °FLight rain. Fog.3 mph94%30.07 "Hg1 mi
11:30 PM
Sep 22
66 °FLight rain. Fog.3 mph94%30.07 "Hg1 mi
11:00 PM66 °FLight rain. Fog.1 mph94%30.07 "Hg2 mi
10:30 PM66 °FFog.3 mph94%30.07 "Hg2 mi
10:00 PM66 °FFog.6 mph94%30.07 "Hg2 mi
9:30 PM66 °FLight rain. Fog.3 mph94%30.07 "Hg2 mi
9:00 PM66 °FLight rain. Fog.6 mph94%30.07 "Hg2 mi
8:30 PM66 °FLight rain. Fog.6 mph94%30.07 "Hg2 mi
8:00 PM66 °FLight rain. Fog.8 mph94%30.07 "Hg2 mi
7:30 PM68 °FLight rain. Fog.3 mph88%30.07 "Hg2 mi
7:00 PM68 °FLight rain. Fog.3 mph88%30.07 "Hg2 mi
6:30 PM68 °FFog.8 mph88%30.04 "Hg2 mi
6:00 PM68 °FFog.3 mph88%30.04 "Hg2 mi
5:30 PM68 °FFog.3 mph88%30.04 "Hg2 mi
5:00 PM68 °FLight rain. Fog.3 mph88%30.04 "Hg2 mi
4:30 PM70 °FLight rain. Fog.1 mph83%30.04 "Hg2 mi
4:00 PM70 °FFog.1 mph78%30.01 "Hg2 mi
3:30 PM70 °FFog.3 mph78%30.04 "Hg2 mi
3:00 PM70 °FFog.3 mph78%30.04 "Hg2 mi
2:30 PM70 °FFog.1 mph78%30.04 "Hg2 mi
2:00 PM70 °FFog.3 mph78%30.04 "Hg2 mi
1:30 PM72 °FFog.3 mph73%30.07 "Hg2 mi
1:00 PM70 °FFog.3 mph78%30.07 "Hg2 mi
12:30 PM70 °FFog.3 mph78%30.07 "Hg2 mi
12:00 PM70 °FFog.3 mph78%30.09 "Hg2 mi
11:30 AM70 °FFog.3 mph78%30.09 "Hg2 mi
11:00 AM70 °FFog.3 mph78%30.09 "Hg2 mi
10:30 AM70 °FFog.1 mph78%30.09 "Hg2 mi
10:00 AM70 °FFog.3 mph78%30.12 "Hg2 mi
9:30 AM68 °FFog.3 mph83%30.12 "Hg3 mi
9:00 AM68 °FFog.3 mph83%30.12 "Hg3 mi
8:30 AM68 °FLight rain. Fog.1 mph83%30.09 "Hg3 mi
8:00 AM68 °FFog.1 mph78%30.09 "Hg3 mi
7:30 AM68 °FFog.1 mph78%30.09 "Hg3 mi
7:00 AM68 °FFog.1 mph78%30.09 "Hg3 mi
6:30 AM68 °FFog.1 mph78%30.09 "Hg3 mi
6:00 AM68 °FClear.1 mph78%30.09 "Hg4 mi
5:30 AM68 °FClear.3 mph78%30.07 "Hg4 mi
5:00 AM68 °FClear.3 mph78%30.07 "Hg4 mi
4:30 AM68 °FClear.3 mph78%30.07 "Hg4 mi
4:00 AM68 °FClear.3 mph78%30.09 "Hg4 mi
3:30 AM68 °FClear.3 mph78%30.09 "Hg4 mi
3:00 AM68 °FClear.3 mph83%30.09 "Hg4 mi
2:30 AM68 °FClear.1 mph83%30.09 "Hg4 mi
2:00 AM68 °FClear.1 mph83%30.09 "Hg4 mi
1:30 AM68 °FClear.3 mph83%30.09 "Hg4 mi
1:00 AM68 °FClear.1 mph83%30.09 "Hg4 mi
Weather by CustomWeather, © 2014

See weather overviewHow to use our weather pages